Вернуться в каталог

STARLINK-6052

АктивенСвязьVLEO
NORAD 56793·PAYLOAD·🇺🇸 United States

Запущен May 31, 2023 с Vandenberg Space Force Base

Loading…

Ближайшие Пролёты (ближайшие 24 часа)

TLE

СвежийSource: CelesTrak SupGP

Эпоха: Sep 14, 2026, 20:44 UTC

1 56793C 23078AC  26257.86437500  .00041723  00000+0  34963-2 0  2575
2 56793  70.0011 227.4751 0003335 262.1859 210.7421 14.98311710    19

Отслеживайте STARLINK-6052 в реальном времени с AllMySat

Download on the App Store